GFSSE_925_thetae_000.txt.gz
Theta_e
330 325 333 336 337 338 339 338 338 334 333 334 336 338 338 337 337 337 336 334 335 338 339 338 338 337 338 336 335 335 335 329 326 324 334 336 338 340 341 338 338 338 337
329 326 330 333 336 337 338 337 333 332 335 337 337 337 338 338 337 336 337 339 338 338 338 337 336 336 335 336 335 335 334 330 327 324 331 336 338 339 339 337 340 339 339
328 330 335 335 336 337 337 338 334 334 336 336 337 337 336 336 335 335 335 337 337 336 336 335 333 332 332 333 332 331 330 329 329 328 325 334 336 339 339 336 334 333 334
329 330 334 334 336 336 336 336 336 336 337 336 335 335 334 334 333 332 333 334 335 334 333 330 327 325 327 327 327 327 326 326 326 327 327 327 332 336 339 338 332 331 331
330 331 332 333 334 336 336 335 335 335 335 334 333 333 333 332 331 330 329 330 332 330 327 325 324 322 321 320 321 320 320 321 322 323 325 327 329 331 333 338 336 332 328
331 331 331 331 331 335 336 336 335 338 335 332 332 332 332 329 327 325 323 324 325 324 321 317 311 307 306 306 304 302 302 301 303 306 314 322 326 329 336 336 336 334 331
330 330 329 328 329 335 335 334 334 335 334 332 330 330 328 325 322 320 319 320 319 315 310 308 307 309 305 301 301 300 300 300 300 300 303 311 321 327 332 334 334 335 334
326 326 326 325 326 331 334 333 332 332 332 330 329 326 323 320 319 317 316 316 315 314 313 313 310 305 303 300 299 299 299 299 300 302 304 308 318 325 326 327 329 331 333
325 324 323 323 325 328 329 330 330 330 329 327 326 322 319 318 317 316 315 315 315 314 312 304 300 299 298 298 298 298 298 299 299 299 301 307 315 320 322 323 324 326 326
324 323 321 321 324 324 325 327 327 328 325 322 320 318 316 314 314 312 312 314 314 312 305 299 298 298 298 298 298 298 297 298 298 298 298 300 305 315 318 319 320 322 323
323 323 321 320 321 321 322 324 324 325 320 318 316 315 313 308 306 305 309 311 310 307 300 299 298 298 298 298 298 297 297 297 296 296 296 297 301 311 314 315 316 317 318
322 322 321 320 319 319 319 320 319 321 319 315 313 311 307 301 300 301 307 306 302 300 299 298 298 298 297 297 296 296 296 295 295 295 295 296 297 306 311 312 314 315 316
320 320 321 320 319 318 317 317 316 316 316 312 310 308 303 299 298 300 302 301 299 298 297 297 297 297 296 296 295 295 294 294 294 294 294 295 295 298 308 311 312 314 315
317 319 320 320 319 318 316 315 313 313 312 310 308 306 302 298 297 299 300 297 296 296 297 297 297 296 296 295 295 294 293 293 293 293 294 294 295 302 308 310 312 313 313
315 316 317 319 319 318 316 314 312 310 310 307 306 304 300 297 297 297 297 296 296 296 296 296 296 296 296 295 294 294 294 293 293 293 294 294 295 298 306 309 310 310 312
309 312 314 316 318 318 317 314 311 309 308 307 305 302 299 298 297 297 296 296 296 296 296 296 296 296 295 294 294 294 294 293 293 293 293 295 296 296 301 305 306 307 309
307 307 309 312 315 317 317 315 312 308 307 306 304 300 299 298 297 297 296 296 295 295 295 294 295 294 294 294 294 293 293 292 292 293 294 294 295 295 296 302 304 306 306
307 307 306 306 309 313 315 315 313 309 306 305 303 298 298 298 297 297 296 296 295 294 293 293 293 294 294 295 295 294 294 293 292 293 292 292 293 294 295 296 296 299 304
308 307 306 305 306 307 311 312 312 310 305 303 302 298 298 298 297 297 296 295 294 293 293 293 293 293 294 294 294 293 293 291 292 293 292 291 292 293 293 293 292 292 294
309 307 306 305 304 304 305 306 306 306 304 302 300 298 298 298 297 296 295 295 294 293 292 292 293 293 293 293 293 293 291 291 291 290 290 291 291 291 291 290 289 290 290
307 305 304 303 301 301 301 301 300 301 302 301 299 297 298 297 297 296 295 294 294 293 293 292 292 292 292 292 293 292 291 291 291 290 291 290 290 289 289 289 289 289 289
308 306 303 302 301 300 299 299 299 299 298 300 299 297 297 297 296 296 295 294 293 292 292 292 292 291 291 291 291 289 288 289 291 290 290 289 289 288 289 288 288 288 288
304 305 304 303 301 299 298 297 298 298 297 296 296 297 297 297 296 295 295 294 293 292 292 292 292 292 292 289 290 291 286 288 286 289 288 288 288 288 287 287 287 288 288
306 305 303 301 299 298 298 297 297 297 296 296 296 297 297 297 296 295 294 293 293 292 291 291 291 291 292 291 288 289 289 289 285 286 287 287 287 287 287 286 287 287 287
304 304 303 301 299 298 297 297 297 296 297 297 296 295 296 296 295 294 293 293 292 292 291 291 290 291 291 291 291 287 286 286 286 285 285 286 286 286 285 286 285 286 286
300 300 300 299 298 297 297 296 296 296 296 295 295 294 294 294 295 294 293 292 292 291 291 290 290 290 291 291 290 290 289 286 284 284 283 283 283 285 285 285 285 286 286

GFSSE_925_thetae_003.txt.gz
Theta_e
327 330 338 340 337 336 336 332 334 334 335 335 337 337 337 336 337 335 333 333 335 339 339 339 338 338 338 338 337 336 332 326 324 332 335 337 341 341 338 338 337 342 340
325 329 336 339 340 340 337 336 336 332 332 333 335 337 338 337 337 337 336 337 338 339 340 337 336 336 336 337 334 333 330 327 326 324 334 335 338 339 336 337 339 339 337
324 325 332 336 337 340 339 338 336 332 331 333 335 336 335 336 336 336 336 338 338 338 337 336 335 333 330 332 331 327 326 327 327 327 326 335 336 340 340 335 332 331 330
325 322 326 330 333 337 338 338 337 333 335 336 336 336 336 335 334 334 335 335 335 335 334 332 328 325 326 326 326 325 325 325 325 325 327 328 334 338 339 338 333 329 326
328 325 327 330 333 334 335 337 336 334 336 336 336 335 334 334 333 333 332 335 334 333 330 327 325 323 322 322 321 319 317 315 316 319 323 326 328 331 335 338 336 332 329
329 330 334 333 333 334 335 335 334 336 336 335 334 333 333 332 331 330 328 332 331 329 326 322 318 317 314 309 306 303 301 301 302 304 310 320 325 330 337 337 337 335 333
330 331 333 333 332 333 337 336 334 338 336 333 332 331 331 330 328 325 325 326 324 322 318 315 317 313 304 301 300 300 300 301 301 301 303 313 325 332 333 334 334 335 335
330 332 333 333 331 333 336 336 335 337 336 333 331 330 330 327 324 322 322 321 319 315 311 310 305 301 300 299 299 299 299 299 299 302 305 310 323 328 329 329 330 331 332
330 331 332 331 330 330 335 334 334 335 335 333 330 329 327 323 321 319 319 318 318 316 314 305 300 300 299 299 299 299 299 298 299 299 301 309 318 323 324 325 325 326 327
327 328 328 327 326 327 329 333 334 333 332 331 329 326 322 319 317 316 316 317 317 316 308 302 300 300 299 299 299 299 299 299 298 298 298 301 310 317 319 320 321 322 323
326 326 325 325 325 325 326 327 330 331 330 329 327 322 319 315 315 313 313 315 316 313 305 300 299 299 299 299 299 298 298 298 297 297 297 297 303 314 316 317 318 319 319
325 325 325 324 323 323 324 326 328 329 328 325 322 318 315 311 310 308 312 313 313 308 302 299 299 299 299 298 298 297 297 296 296 295 296 296 297 305 313 315 316 317 318
320 323 323 323 322 322 322 324 326 327 326 322 318 315 313 309 307 306 309 309 307 303 300 299 298 298 298 298 297 297 296 295 295 295 295 295 295 305 311 314 315 317 316
318 320 322 323 322 321 321 321 322 323 323 319 315 312 310 306 302 303 306 305 303 301 298 297 298 297 297 296 296 295 295 294 294 294 294 295 295 301 311 313 314 315 316
317 318 319 321 322 321 321 319 319 319 319 318 314 311 309 304 299 300 303 302 299 297 297 297 297 296 296 296 295 295 294 294 293 294 294 295 297 306 310 311 311 313 315
313 315 317 318 320 321 320 319 318 317 316 315 313 309 308 304 299 299 301 299 296 296 296 296 296 295 295 294 294 294 294 293 293 294 295 296 297 300 307 308 309 310 311
309 311 313 315 317 319 320 319 318 316 314 313 312 309 307 303 299 297 298 297 295 295 295 295 294 294 294 294 294 294 294 293 293 293 294 295 295 298 304 306 307 309 310
308 308 309 310 313 316 318 319 318 316 314 312 310 309 307 304 299 297 297 296 295 295 295 294 294 294 293 294 294 294 294 293 293 292 292 293 294 295 295 296 302 305 304
309 308 308 307 309 311 315 315 316 316 315 312 310 308 306 303 299 297 296 296 295 294 294 294 294 293 293 293 293 293 293 292 293 292 291 292 293 292 292 292 292 294 298
310 309 307 307 306 308 311 311 312 313 313 312 311 308 306 302 299 297 297 296 295 294 294 293 293 292 293 292 292 292 291 291 291 290 291 291 292 292 291 291 290 290 290
308 307 305 305 304 305 307 307 306 307 308 309 310 308 306 302 298 298 297 296 295 294 294 293 291 292 292 291 291 290 290 290 290 290 290 289 289 289 289 289 289 289 289
306 306 304 303 302 303 305 305 304 303 302 304 306 306 305 302 298 298 297 296 295 294 293 292 292 291 291 291 292 291 293 291 290 290 289 289 288 288 288 288 288 288 288
305 304 304 303 301 300 302 302 301 301 300 299 300 301 302 301 298 297 297 296 295 294 293 292 292 292 292 291 292 294 292 296 290 289 289 289 288 288 287 287 288 288 287
301 302 302 301 301 299 300 299 299 299 298 297 297 298 300 299 297 297 297 296 295 294 293 292 292 292 293 292 290 291 291 291 294 292 288 287 287 287 286 287 287 287 287
299 300 301 300 299 298 298 298 298 298 298 298 298 297 297 297 296 297 296 296 295 294 293 292 291 291 292 294 293 290 288 288 288 290 292 288 286 286 286 286 287 287 287
298 298 297 297 297 297 297 297 297 297 296 296 296 296 296 295 295 295 296 295 295 294 293 293 292 291 292 292 294 293 293 289 287 288 288 287 287 285 285 285 286 286 287

GFSSE_925_thetae_006.txt.gz
Theta_e
332 334 336 342 341 337 337 337 336 336 336 337 336 334 332 333 335 333 332 334 337 340 340 339 339 339 339 338 336 331 326 324 328 333 336 340 342 338 339 338 343 344 341
331 336 336 340 338 339 336 333 333 334 335 335 337 337 337 337 336 335 334 334 339 340 339 338 336 335 335 336 334 329 328 327 324 330 334 338 340 336 335 336 335 335 333
330 337 338 339 337 336 335 334 333 333 332 334 338 338 335 336 336 335 336 338 339 340 337 336 335 334 331 331 330 325 325 326 327 326 331 334 340 341 336 333 331 329 329
330 337 341 339 340 340 337 337 337 334 331 333 338 337 336 335 335 335 335 337 337 337 335 335 331 326 327 326 325 325 325 325 324 325 325 329 332 338 339 337 332 328 328
330 335 339 338 340 340 339 339 337 335 332 335 338 336 336 335 333 333 333 334 335 334 333 328 326 324 323 323 321 318 314 313 314 317 323 327 331 335 335 338 337 332 329
331 334 336 333 335 337 338 338 337 335 334 337 336 335 334 333 332 331 331 332 333 331 328 325 322 318 314 310 306 302 301 301 302 308 317 325 332 335 337 336 336 335 333
332 334 336 329 331 332 334 336 336 333 336 337 334 333 332 332 331 329 328 330 329 326 323 320 319 310 303 301 300 300 300 301 303 308 315 324 331 333 334 333 335 335 335
333 334 335 332 333 333 333 336 335 334 338 337 334 332 330 330 329 326 326 326 324 322 319 317 310 303 300 299 299 299 299 299 302 308 314 320 326 329 329 330 330 331 331
333 334 335 335 334 331 333 337 336 336 338 336 333 330 330 329 326 323 323 322 321 319 318 315 310 303 300 299 299 299 299 299 302 303 309 315 319 323 324 324 325 326 326
331 333 334 335 335 335 333 333 336 335 337 335 333 330 329 328 322 320 318 319 319 318 314 311 307 302 300 300 300 300 300 300 299 300 306 308 313 318 320 320 321 322 323
329 331 332 333 333 333 333 331 334 334 334 334 333 330 328 323 320 318 317 317 318 316 311 303 300 300 300 300 300 299 299 299 298 298 303 298 305 315 316 317 318 319 320
327 328 329 330 331 331 331 331 331 334 333 333 332 329 326 321 318 317 316 317 317 314 310 303 299 299 299 299 298 298 298 298 297 296 298 296 297 308 314 316 317 318 319
324 326 326 327 328 328 329 329 329 331 332 331 329 325 322 318 315 313 315 316 316 312 309 303 298 298 298 298 297 297 296 296 296 296 296 296 297 309 313 315 317 317 317
320 323 325 325 326 326 326 327 327 328 328 326 325 322 319 316 314 312 314 314 313 310 306 299 297 297 297 297 297 296 296 296 295 295 296 295 296 307 313 315 316 317 317
317 320 322 324 324 324 325 324 325 325 325 324 322 320 318 314 311 310 311 311 310 306 301 297 297 297 296 296 296 295 295 295 295 295 297 295 303 311 312 313 314 316 317
314 317 319 322 322 323 323 323 323 322 323 322 319 318 316 312 309 308 308 308 306 303 298 296 297 296 295 295 295 295 295 294 294 294 297 298 300 308 310 310 312 312 314
312 313 316 319 320 322 322 321 321 320 320 320 317 316 315 312 307 303 305 305 303 300 296 296 296 295 295 294 294 294 294 294 294 294 296 299 302 305 308 309 310 313 312
311 311 312 315 317 319 321 320 320 319 318 317 316 314 314 311 308 302 302 301 300 296 295 295 295 294 295 295 295 294 294 294 293 293 294 296 297 297 298 305 308 307 307
310 310 310 312 316 317 319 319 319 318 317 316 315 313 312 311 308 303 300 299 298 295 295 295 295 295 295 295 294 294 294 295 293 293 293 293 293 293 294 296 301 302 301
310 309 309 309 312 315 316 317 318 316 315 314 313 312 310 309 307 302 299 298 297 295 294 294 294 294 295 295 293 294 294 293 293 293 292 291 291 291 291 291 291 292 298
307 307 307 307 307 312 313 314 315 315 314 313 312 310 308 307 306 303 299 297 296 295 295 294 294 293 293 293 295 294 293 292 293 292 291 291 290 290 289 290 291 292 297
304 304 304 305 305 308 311 312 313 312 312 311 311 308 307 305 305 304 300 297 295 294 294 293 293 293 294 293 297 297 298 294 292 292 291 290 290 289 289 289 289 290 293
301 301 301 302 302 304 307 309 309 304 306 307 308 306 304 304 302 303 299 297 296 295 294 293 293 293 294 292 294 299 299 302 296 292 291 290 290 289 289 288 288 289 291
298 298 299 300 300 300 303 305 305 304 304 303 303 303 303 302 301 300 299 297 296 295 294 293 293 293 295 294 292 292 294 298 300 296 292 291 290 289 289 288 289 288 292
298 297 297 297 297 298 300 301 302 303 303 302 300 301 301 300 299 298 297 296 295 295 294 293 292 292 293 296 295 292 292 292 293 299 297 292 289 289 288 288 289 289 291
297 296 296 296 295 295 296 298 299 300 300 300 299 299 299 298 297 297 296 295 295 294 294 294 293 292 292 294 295 294 294 294 294 295 297 294 292 288 288 288 289 290 289

GFSSE_925_thetae_009.txt.gz
Theta_e
334 338 334 334 334 338 341 341 339 338 338 338 335 333 331 331 332 330 332 333 337 340 340 340 341 339 338 336 332 327 324 325 332 335 340 342 340 339 339 343 343 343 339
333 338 334 337 336 337 341 341 340 337 336 337 334 334 335 338 337 337 333 335 341 340 339 339 337 335 335 335 331 327 327 326 326 333 337 339 339 336 335 335 337 335 335
332 336 336 339 340 338 340 340 339 335 336 337 338 338 337 338 337 336 337 338 340 340 338 336 335 333 332 331 329 325 325 326 327 326 332 336 340 340 336 332 329 329 329
332 337 340 340 340 340 337 335 335 334 334 338 338 337 337 336 336 336 337 338 339 338 336 335 334 328 326 326 325 325 324 324 324 325 327 331 334 338 340 337 331 329 331
331 337 341 341 340 337 337 336 336 335 332 334 338 338 337 337 335 334 334 336 336 336 333 330 326 325 324 323 320 316 313 311 313 318 326 330 333 336 337 338 337 331 331
330 336 341 341 340 340 340 338 338 337 333 333 338 337 336 334 333 332 332 333 333 333 332 326 324 321 317 311 305 301 301 301 306 313 321 327 334 335 337 336 337 335 334
331 333 338 339 339 340 340 339 338 337 334 335 338 337 334 333 332 330 330 331 331 331 328 324 319 312 304 301 300 300 300 302 311 313 319 327 331 333 333 333 335 335 335
333 334 335 335 337 338 338 337 337 337 334 337 337 335 333 331 331 330 328 330 329 326 323 322 313 303 300 300 299 299 300 301 308 313 317 324 328 328 328 330 330 331 331
333 335 336 337 334 334 333 333 334 335 334 338 337 334 333 330 330 329 327 327 325 322 321 320 312 304 300 300 300 300 300 301 307 308 312 317 321 323 324 325 326 327 327
332 335 336 336 337 337 337 335 338 335 334 338 337 334 331 329 328 325 323 323 322 321 319 317 311 305 301 300 300 300 299 301 302 305 309 308 315 319 320 321 322 323 323
330 334 335 336 336 336 336 335 337 336 336 337 336 333 332 329 327 324 321 320 320 320 317 315 308 301 300 300 300 300 301 301 301 302 306 299 305 315 317 318 319 320 321
327 330 333 334 335 335 335 334 333 332 334 335 335 333 331 329 324 321 319 318 319 318 316 314 303 300 300 301 299 299 300 299 300 299 301 297 298 309 314 316 317 319 320
322 326 329 332 333 333 334 333 333 332 332 333 333 333 330 328 322 319 318 317 318 317 313 310 301 298 300 300 299 299 298 299 299 299 299 296 297 308 313 315 318 318 318
319 321 326 328 330 331 331 331 331 331 332 332 332 332 329 326 320 318 317 317 318 314 312 308 300 300 299 299 299 298 298 298 299 298 299 296 296 304 313 316 316 318 318
317 319 322 326 327 329 330 330 329 330 331 331 332 331 327 323 319 316 316 316 317 314 311 306 300 299 298 297 297 297 297 297 297 298 300 296 299 311 313 314 316 317 318
315 317 319 322 326 326 328 329 328 329 329 329 329 328 325 321 318 315 314 315 314 311 308 302 300 299 298 297 297 297 296 296 297 297 301 299 302 309 311 311 314 315 315
315 315 317 319 323 325 326 327 327 327 327 328 327 325 322 320 317 314 312 313 312 309 303 300 300 299 299 297 297 296 296 296 297 297 299 303 302 308 310 310 311 315 314
314 313 314 315 319 323 324 325 326 325 325 326 325 323 320 318 315 312 310 310 309 305 301 299 299 298 298 297 297 297 297 297 296 296 297 301 301 302 304 309 310 310 310
311 312 312 313 315 319 322 323 324 324 323 323 323 321 319 316 314 310 308 308 306 302 299 298 298 298 298 298 298 297 297 297 295 295 296 296 295 297 298 304 308 307 306
308 309 310 311 311 316 319 321 322 323 322 321 320 319 318 315 312 308 306 305 303 300 298 298 298 298 298 298 296 297 297 297 295 295 295 294 293 293 294 294 297 297 301
304 304 306 308 310 311 316 318 320 320 321 320 319 318 317 314 311 307 305 303 301 299 298 297 297 297 298 296 296 296 295 295 295 295 294 293 293 292 292 293 294 297 300
301 301 303 304 306 308 313 315 316 317 318 318 317 316 315 313 310 306 304 302 300 298 297 297 297 297 297 296 299 298 299 295 295 294 293 293 292 291 291 291 292 293 298
300 300 300 301 302 304 308 310 312 312 309 310 313 313 312 311 309 306 303 302 300 298 297 297 296 296 297 296 299 301 304 304 296 294 293 292 292 291 291 290 291 292 297
300 299 299 298 299 301 303 306 307 308 307 307 307 308 309 308 308 306 303 302 300 298 297 297 296 296 297 296 296 299 299 300 302 297 294 293 292 291 291 291 290 291 295
299 299 298 298 298 298 299 301 302 303 304 305 303 302 304 304 304 305 303 302 300 298 297 297 296 296 297 297 296 296 295 296 298 302 297 294 292 291 290 290 290 290 294
298 298 297 298 297 297 297 297 297 298 299 300 301 301 301 302 302 301 302 301 300 299 297 297 296 295 296 297 297 297 296 296 296 298 301 295 293 291 290 290 290 291 292

GFSSE_925_thetae_015.txt.gz
Theta_e
337 334 333 335 335 337 340 340 342 340 337 335 332 329 328 328 329 331 332 338 337 340 341 339 338 338 333 327 325 324 331 335 340 341 339 337 338 342 343 341 340 339 340
337 335 332 335 335 337 340 340 341 340 338 334 332 330 328 329 329 329 331 336 339 339 339 339 336 334 330 327 326 326 324 332 337 338 338 336 336 339 338 332 331 335 338
336 337 331 332 334 335 337 339 339 338 338 337 332 331 331 334 335 332 333 339 339 339 338 337 333 331 328 328 324 323 324 325 332 329 334 336 335 335 333 329 328 331 334
336 336 333 331 332 334 335 339 339 338 336 336 333 336 336 337 336 336 335 338 339 337 338 336 333 329 324 324 323 324 323 323 325 328 332 335 336 336 336 333 331 331 327
335 335 335 333 333 333 334 339 340 340 336 336 338 337 336 335 335 334 337 339 338 336 335 333 326 324 323 320 318 315 314 315 321 325 328 332 336 337 336 336 332 332 330
333 335 335 333 336 336 336 340 340 338 337 337 336 336 336 337 336 334 335 336 335 334 333 331 325 323 318 313 305 302 302 307 312 320 327 334 335 336 335 336 335 334 334
331 336 339 335 335 337 336 338 338 337 333 335 334 336 336 336 333 331 331 333 333 332 331 330 325 319 310 302 300 301 303 307 309 320 328 332 333 333 332 332 332 333 334
330 334 340 340 337 338 340 337 336 335 336 335 334 336 336 335 332 329 329 330 330 330 329 326 321 312 302 300 300 300 304 308 313 318 323 328 328 327 329 329 330 330 331
331 330 334 338 340 339 339 338 336 337 336 335 333 336 338 335 332 329 323 328 329 329 326 323 315 303 300 300 300 301 305 307 313 315 316 317 321 325 324 326 327 328 328
331 331 331 333 336 339 339 339 339 338 337 336 334 335 338 334 332 330 325 326 328 327 324 321 308 301 300 300 300 300 302 304 306 310 312 312 318 321 320 320 322 323 324
329 331 333 333 334 334 336 338 339 338 337 336 335 335 338 335 331 330 327 323 327 324 323 319 307 301 301 300 300 300 302 302 303 304 305 306 308 315 317 318 318 319 321
322 325 330 332 334 334 333 337 338 338 336 334 335 335 336 334 332 331 328 321 322 322 320 317 306 301 300 299 299 300 301 301 301 301 301 298 299 306 315 313 315 318 320
318 321 324 328 332 335 335 333 331 332 332 333 334 335 333 332 332 330 329 322 318 319 318 316 311 302 301 301 300 301 300 300 300 300 300 298 298 308 313 315 318 319 318
316 317 320 324 327 332 335 336 335 335 333 334 331 333 332 332 330 330 328 322 317 317 316 312 306 301 301 301 301 300 300 300 300 300 300 299 298 301 313 317 316 317 318
313 314 317 322 326 327 332 335 335 335 335 334 332 331 331 330 329 329 327 323 318 316 315 312 307 301 300 301 300 300 300 300 300 300 300 300 299 304 314 315 317 318 318
308 311 314 317 323 327 330 332 334 334 333 333 333 331 330 330 330 328 326 323 319 316 315 314 307 302 300 300 300 299 299 299 299 299 300 300 301 307 313 314 316 318 317
306 307 310 313 318 325 328 330 332 333 332 332 332 331 329 329 328 327 326 323 319 316 315 314 310 305 300 299 298 298 298 298 298 298 299 300 300 308 309 312 313 314 316
304 306 308 311 315 324 327 328 329 331 330 330 330 330 331 328 328 327 325 322 319 316 316 314 311 306 300 299 298 298 298 297 298 298 298 301 301 304 307 309 313 316 316
301 303 306 310 314 318 325 326 327 328 329 328 328 328 329 330 329 327 325 322 317 317 316 314 311 307 300 299 298 297 297 297 297 297 297 299 301 300 304 307 312 313 313
299 301 304 308 312 316 318 321 323 324 326 325 325 325 326 326 327 324 322 319 316 316 315 312 310 303 300 299 298 297 297 297 297 296 296 297 298 297 297 299 308 311 311
298 298 300 304 308 312 314 316 317 318 319 321 322 322 323 323 322 323 320 316 314 314 314 312 308 301 299 298 297 297 297 297 297 296 295 296 295 294 295 295 300 307 308
297 297 298 300 303 305 307 310 311 311 310 311 314 318 317 317 318 319 319 315 312 311 311 310 307 302 299 298 297 295 293 294 296 296 296 295 295 294 294 294 294 297 299
297 297 297 297 298 301 303 305 306 306 306 308 306 307 312 312 313 314 315 315 311 308 308 308 305 301 298 298 297 297 293 293 292 294 295 295 294 294 293 293 293 293 295
296 296 296 296 297 297 298 299 298 297 298 298 299 300 301 302 307 309 309 310 309 306 304 305 304 301 298 298 296 297 298 297 292 292 294 294 294 293 293 292 292 292 293
294 294 295 295 295 296 296 296 296 296 296 296 297 298 298 299 301 302 303 304 306 306 304 302 301 299 298 297 297 297 297 298 297 292 291 291 293 293 292 292 291 291 291
294 293 293 293 294 294 294 294 295 294 294 294 294 294 294 295 296 298 299 300 299 302 304 302 300 299 298 297 297 296 297 297 295 295 290 290 291 292 292 291 291 291 291

GFSSE_925_thetae_021.txt.gz
Theta_e
336 335 337 337 337 338 336 339 338 336 336 334 332 329 330 332 335 338 338 337 338 339 338 336 335 327 325 324 329 334 338 341 340 339 338 340 341 339 338 338 338 340 341
332 334 336 336 336 336 334 333 334 336 336 334 331 328 328 329 330 334 336 337 339 339 338 337 335 328 325 324 323 330 336 339 336 336 336 338 338 335 330 330 336 339 340
332 333 336 336 336 336 341 337 337 337 336 334 332 329 327 328 329 330 333 339 339 338 337 336 333 327 327 323 324 324 330 335 336 337 335 334 333 332 330 329 328 332 336
332 335 333 335 336 338 343 342 340 339 337 335 332 330 329 331 331 330 335 337 338 338 336 336 330 326 324 323 322 322 324 329 328 332 335 335 335 335 335 333 331 327 327
333 334 333 334 335 339 342 341 340 339 337 337 334 331 333 337 336 333 332 336 339 337 335 336 328 324 323 321 319 318 320 322 325 330 332 335 337 337 335 334 331 330 330
331 335 333 333 335 335 339 339 337 337 336 337 334 336 337 337 335 333 335 336 337 335 333 333 330 324 321 316 310 307 310 315 321 325 331 335 335 333 336 333 333 332 333
328 334 334 332 333 335 335 336 336 336 336 334 332 335 337 336 333 332 333 335 334 332 330 330 329 325 319 307 302 302 304 309 314 323 332 335 334 334 334 332 332 331 331
330 334 335 334 332 333 334 335 335 337 337 335 335 336 333 335 335 333 329 332 332 331 329 328 328 323 314 301 301 304 306 307 310 318 327 331 331 330 329 329 328 327 328
329 332 333 335 334 334 335 335 335 337 338 336 335 335 335 335 336 333 332 325 330 330 329 328 325 319 306 300 300 303 306 308 311 315 320 324 326 325 325 324 321 327 327
327 328 330 334 336 335 336 337 337 338 338 337 335 335 334 335 337 335 332 330 325 327 326 327 323 315 302 299 300 303 305 306 310 313 314 316 319 320 317 319 323 325 325
327 329 330 332 335 336 336 336 338 338 337 336 335 335 333 335 337 336 333 331 328 323 324 325 322 311 301 299 300 301 303 304 305 306 306 307 313 314 315 314 315 318 320
317 324 329 332 334 335 336 337 339 339 338 336 334 334 333 333 334 334 333 331 329 323 323 324 321 312 301 299 300 301 301 302 302 303 303 303 305 303 310 310 309 313 318
307 310 316 327 332 334 336 337 338 338 338 334 334 334 334 333 333 333 331 330 328 325 323 321 319 312 304 299 299 300 301 301 301 301 301 301 300 300 309 313 314 318 320
307 308 310 312 324 330 332 333 333 335 338 336 335 334 333 333 332 332 331 330 328 326 324 321 318 313 306 299 299 300 300 301 301 301 301 301 300 300 309 315 318 319 318
305 307 309 311 314 324 330 332 332 333 334 339 338 336 336 335 329 330 330 329 328 327 325 321 318 315 310 302 301 301 300 300 300 300 300 301 300 300 306 316 318 318 319
303 306 309 312 312 318 327 331 333 333 333 332 332 332 331 333 332 327 330 329 328 326 326 324 319 316 313 305 300 300 300 299 299 300 300 300 300 301 305 315 317 318 319
303 307 312 314 316 315 323 329 331 333 334 334 334 334 332 331 330 328 328 329 328 326 325 323 320 317 314 311 302 300 300 299 298 299 299 300 300 302 306 313 315 317 319
303 307 312 318 320 321 324 327 330 331 332 332 333 332 330 330 331 330 329 327 326 328 326 322 320 317 315 312 307 301 299 299 298 298 298 299 300 301 304 307 308 312 318
302 306 310 315 319 322 324 327 328 328 328 327 328 329 329 329 329 329 329 328 326 325 323 321 319 316 315 313 308 302 299 298 298 298 298 299 299 300 301 304 305 306 309
300 302 306 310 314 316 320 321 322 322 320 322 323 324 325 325 325 325 324 323 323 321 319 319 318 316 313 312 308 305 301 298 297 297 298 298 298 299 300 301 303 304 309
297 299 300 304 306 312 315 314 312 310 310 312 314 316 317 319 320 321 319 319 318 318 318 317 316 314 311 308 304 303 302 300 298 297 297 297 297 298 298 299 299 301 305
295 296 297 298 301 304 305 304 304 302 299 300 302 305 308 310 312 313 314 314 312 312 312 311 312 311 309 307 301 295 294 298 299 298 297 297 297 297 297 297 297 297 299
294 295 296 296 297 299 301 302 302 302 301 299 297 298 299 300 301 303 306 306 307 307 306 305 305 305 304 303 301 298 295 293 291 296 297 296 296 296 296 296 296 296 296
292 294 295 296 297 297 297 297 296 293 292 291 292 293 294 295 296 297 298 299 299 300 301 302 302 300 299 299 299 299 297 295 294 294 297 297 296 296 297 296 296 295 295
291 292 292 293 294 293 294 294 292 289 288 288 288 289 288 287 288 289 291 293 294 295 295 296 298 300 300 298 296 296 296 296 294 293 295 293 296 297 297 297 296 296 296
290 289 290 290 289 290 290 289 288 287 286 286 285 285 285 285 285 285 285 285 285 287 289 291 293 294 296 297 297 296 295 294 294 293 292 293 293 295 296 297 297 297 297

GFSSE_925_thetae_024.txt.gz
Theta_e
334 336 340 341 339 340 340 338 337 336 335 334 332 333 334 336 338 337 336 338 338 338 336 336 332 326 324 327 332 337 340 340 338 337 339 340 338 336 337 338 339 341 341
332 335 337 342 342 339 341 338 336 336 335 333 331 331 331 331 336 338 336 339 340 337 337 336 331 326 324 324 327 335 339 336 336 335 336 337 334 330 329 333 338 340 341
331 334 336 338 340 341 335 335 334 336 335 334 331 328 328 328 328 329 335 340 338 336 337 336 329 325 325 323 324 326 332 334 335 334 333 333 334 333 330 329 330 336 338
332 332 335 336 336 337 337 334 335 337 336 334 332 330 329 329 329 330 336 337 336 337 335 335 327 324 323 322 322 322 324 328 329 333 334 334 335 335 336 333 330 327 328
332 333 333 335 335 335 341 341 339 339 337 335 333 331 330 333 333 331 332 335 338 336 334 334 330 324 322 320 318 318 320 322 326 331 332 334 336 337 334 331 330 331 330
331 334 333 334 335 335 338 340 340 339 337 336 334 331 334 337 335 332 332 333 334 335 332 332 331 326 322 316 309 307 311 316 322 326 331 333 332 335 335 332 331 331 331
327 333 334 333 334 335 339 341 340 338 336 336 335 333 337 336 333 330 331 333 333 331 330 328 329 327 322 311 303 303 305 310 317 323 330 333 332 333 333 331 331 329 329
327 330 334 333 333 336 340 340 339 339 338 338 336 335 337 334 333 332 330 330 331 330 328 327 326 324 318 303 301 304 305 306 310 318 327 331 331 330 328 329 328 327 327
330 333 334 335 333 333 336 339 338 337 337 337 335 335 336 335 335 333 332 329 325 329 328 326 325 323 314 300 300 303 306 308 310 315 320 323 325 325 324 324 323 325 325
327 329 333 334 335 335 335 336 336 337 336 337 336 334 335 335 335 335 334 332 328 325 326 324 323 321 309 300 300 303 305 307 310 312 313 314 316 317 313 313 318 322 324
320 325 328 332 335 336 337 337 337 337 336 336 337 334 334 333 335 334 335 332 330 327 323 323 323 319 307 300 299 301 303 304 305 307 306 307 311 313 313 312 313 316 318
308 311 320 327 332 334 337 341 339 338 337 337 336 334 333 332 332 331 333 332 330 327 324 324 322 318 309 301 299 300 301 301 302 303 303 303 305 305 309 311 310 312 316
304 307 308 313 325 331 334 336 341 341 339 337 334 334 333 333 333 330 331 331 329 328 326 325 322 318 313 303 299 299 300 301 301 301 301 301 300 300 306 312 315 317 320
304 305 308 309 310 323 331 334 339 335 334 335 333 332 334 335 334 332 331 331 330 328 327 325 324 320 315 308 299 299 300 300 300 300 301 301 301 300 301 315 317 319 319
304 306 309 311 311 311 324 332 336 337 336 332 332 333 332 333 331 329 329 331 330 329 327 325 324 322 317 313 305 301 301 300 300 300 300 301 301 301 301 315 318 318 319
304 309 312 314 315 313 317 328 332 332 335 335 334 332 333 334 332 331 328 327 329 329 327 326 324 322 319 315 311 302 300 300 300 300 300 300 300 301 302 310 317 318 319
304 309 315 318 320 316 320 327 331 332 333 333 332 332 332 332 332 332 329 328 328 329 328 326 323 322 321 318 314 309 302 300 300 299 299 299 300 300 302 306 312 316 318
303 308 315 319 322 324 326 327 328 329 329 328 328 329 329 329 328 328 328 327 326 326 326 326 324 321 319 317 315 312 308 302 299 298 298 298 299 300 300 303 306 307 312
302 307 312 315 320 321 323 324 324 325 325 324 325 325 324 323 324 324 324 323 322 321 321 320 317 316 316 315 313 312 310 307 303 300 298 298 298 298 299 301 303 306 306
300 303 307 313 313 317 319 318 316 316 315 315 315 316 319 320 320 320 319 318 318 318 317 316 316 315 314 312 310 311 311 310 308 306 304 299 298 298 298 299 300 302 304
299 301 305 308 310 314 314 310 308 302 305 307 307 309 309 310 312 313 312 312 312 312 311 312 312 312 311 309 308 307 308 309 307 305 301 299 298 297 297 297 298 299 300
295 296 299 303 305 307 308 304 301 300 299 299 300 302 303 304 304 305 305 305 307 307 305 304 305 306 305 304 302 299 297 302 300 300 298 299 299 297 297 297 297 297 297
295 295 296 298 301 302 303 303 303 300 297 296 294 295 295 297 298 298 298 299 300 300 300 301 301 300 300 300 300 299 298 297 293 301 300 300 297 298 298 298 297 297 296
292 294 295 297 298 298 299 300 299 294 289 287 288 289 289 290 291 291 292 293 293 294 295 295 296 298 299 297 298 297 297 295 295 293 297 298 298 297 296 296 296 297 297
291 291 291 292 293 293 294 295 293 289 287 287 287 287 286 286 286 286 286 286 286 286 287 289 292 293 293 294 294 295 295 295 294 292 294 294 295 297 297 297 297 297 297
289 289 289 289 289 290 290 289 288 287 286 286 285 285 285 285 285 285 285 285 285 285 285 285 285 285 286 287 288 290 291 293 294 293 293 295 294 295 296 296 297 297 297

GFSSE_925_thetae_027.txt.gz
Theta_e
333 338 341 342 341 341 338 337 336 336 334 333 335 337 335 336 336 336 338 339 339 337 337 335 331 325 326 331 335 338 339 338 336 338 338 336 334 335 337 338 341 341 339
332 336 341 341 341 340 339 338 336 336 334 332 331 331 331 335 338 337 338 341 337 336 335 334 328 324 324 324 331 337 336 335 334 335 335 332 331 330 329 334 335 340 341
331 335 339 341 342 340 342 338 336 336 335 333 331 329 328 328 330 331 339 339 335 336 337 333 326 325 323 322 323 327 331 332 335 333 333 333 336 332 331 329 328 331 336
331 334 337 339 338 338 336 335 334 335 335 334 331 329 329 328 328 333 338 337 336 337 334 333 325 323 322 321 321 321 323 327 330 334 334 334 337 336 335 330 329 328 326
332 333 335 336 337 338 336 333 334 337 336 335 333 331 330 332 331 330 334 334 337 335 333 333 331 325 322 319 315 315 318 322 326 332 332 334 335 336 331 330 330 330 330
331 332 334 335 336 337 341 342 340 338 337 335 334 331 333 335 333 331 331 334 333 333 330 329 330 328 323 316 308 306 309 315 322 328 331 332 334 336 332 331 331 330 330
330 333 333 335 335 336 337 340 341 339 338 336 335 332 336 336 333 329 331 333 331 329 328 327 326 327 321 309 302 303 306 311 318 325 331 332 333 333 332 332 331 330 328
329 333 335 334 335 336 336 339 340 340 338 338 338 332 337 336 331 331 330 329 331 330 328 325 324 324 317 303 301 304 306 308 313 320 327 330 330 330 328 329 328 327 326
331 333 334 334 334 335 337 338 339 339 337 337 337 334 336 335 334 333 332 330 326 327 327 324 321 321 314 301 301 304 306 309 312 316 320 322 323 323 320 319 323 324 324
326 328 333 335 335 334 336 337 338 338 337 336 336 334 334 335 334 335 334 331 329 326 325 321 318 321 313 300 300 303 305 308 310 312 313 314 315 318 316 310 311 316 320
312 317 324 331 334 336 340 339 339 336 336 335 336 335 333 334 333 332 333 332 330 328 326 324 323 319 312 301 299 301 302 303 304 305 305 306 310 312 315 314 311 313 317
307 308 310 317 327 335 339 336 336 340 336 335 335 334 334 332 333 331 330 333 330 329 327 326 325 322 315 305 299 299 300 301 301 302 302 302 303 304 313 316 316 316 318
303 306 308 309 312 324 336 336 334 335 335 336 335 334 334 332 332 333 330 329 330 328 327 326 325 324 320 312 302 299 300 300 301 301 301 301 301 300 304 316 316 318 320
304 307 309 310 311 312 324 332 333 333 333 333 333 331 333 333 333 333 331 331 330 329 328 326 324 323 322 317 310 300 300 300 300 300 300 301 301 301 301 311 317 319 320
305 309 312 313 314 313 312 329 332 332 331 331 331 331 331 332 333 332 330 329 330 330 328 327 325 324 323 320 315 309 301 300 300 300 300 300 301 301 301 304 317 319 319
306 311 315 317 317 314 312 327 330 331 330 330 330 330 331 331 331 332 330 328 327 327 328 327 326 324 322 320 319 314 309 303 300 300 299 299 299 300 301 304 318 318 319
306 312 317 319 321 323 326 328 328 329 328 327 326 329 329 329 329 328 328 327 327 327 325 325 324 322 321 318 316 316 314 311 306 302 299 299 299 299 300 302 309 314 317
306 312 317 318 319 321 323 325 326 327 327 326 326 327 326 326 325 324 325 324 323 323 323 322 321 320 318 315 314 313 313 313 310 306 303 300 299 298 299 300 302 306 308
304 309 315 318 319 320 321 323 323 322 322 321 322 322 322 322 322 321 320 319 319 319 318 317 317 317 316 316 315 314 313 313 313 312 310 306 301 298 298 298 299 301 303
301 307 311 315 318 319 319 317 316 315 313 312 312 312 315 316 317 317 315 315 315 315 314 314 314 313 313 311 311 312 312 311 312 311 309 305 302 299 297 297 297 298 299
301 303 307 310 310 314 314 311 308 303 304 306 306 306 307 308 308 309 309 310 309 309 307 307 308 308 307 305 306 307 308 307 307 304 304 299 301 299 297 297 297 297 297
296 300 302 305 306 308 310 306 303 300 299 299 299 301 302 303 303 302 302 302 302 303 302 302 302 302 301 299 299 299 303 303 298 303 304 301 300 300 301 300 298 297 296
295 297 299 300 302 303 303 303 300 297 294 293 292 292 292 294 294 295 295 295 295 295 295 295 297 299 298 299 297 297 302 302 296 299 301 300 300 299 297 297 297 297 297
291 295 296 299 301 301 301 300 297 292 287 286 286 287 287 287 287 288 288 288 288 288 288 289 291 293 294 293 297 296 296 295 297 299 297 298 296 298 299 299 299 300 300
291 292 293 294 295 296 296 295 293 288 286 286 286 286 286 286 286 286 286 286 286 285 285 285 285 285 285 286 288 291 292 294 293 294 297 296 294 295 295 295 295 296 298
288 290 291 292 291 291 291 291 290 288 286 286 286 286 285 285 284 284 284 284 284 284 284 284 284 284 284 284 284 284 286 289 289 290 291 291 291 292 291 291 292 295 296

GFSSE_925_thetae_030.txt.gz
Theta_e
337 341 341 342 342 340 338 336 335 334 334 334 335 333 335 336 336 338 340 341 338 338 336 334 330 325 328 334 337 338 337 336 337 337 335 332 333 334 337 340 342 342 338
336 340 341 342 341 340 338 337 336 335 333 332 332 332 336 338 337 337 340 337 336 336 335 331 326 323 323 325 332 335 334 334 334 333 333 334 331 330 328 329 336 340 341
335 340 342 342 342 340 339 337 336 336 334 333 331 329 330 332 331 336 340 336 337 337 334 331 326 323 322 321 323 327 329 332 334 333 334 336 337 335 331 329 327 329 336
335 339 343 341 341 340 341 338 336 336 335 333 331 329 328 328 332 338 338 335 337 337 333 331 326 323 321 318 318 320 323 327 330 333 335 335 337 336 331 330 330 329 329
336 339 343 340 341 340 338 336 335 336 336 334 332 330 330 331 330 333 333 336 335 333 332 330 330 326 321 315 311 311 316 322 328 334 334 334 335 334 331 331 332 331 330
336 338 341 339 340 341 339 336 336 337 337 336 334 331 332 334 330 330 332 334 332 330 329 327 328 328 322 311 305 305 309 316 326 332 332 332 336 336 334 331 332 331 329
336 337 339 337 337 340 338 341 341 339 338 336 335 332 336 335 331 329 331 332 331 329 326 322 321 324 318 305 304 305 307 312 326 329 330 331 332 333 332 331 332 330 328
335 335 338 336 337 340 339 339 340 340 338 338 337 333 337 335 331 331 330 331 331 330 328 325 318 320 314 302 302 305 307 308 319 324 327 328 329 329 328 328 328 328 327
332 336 337 339 337 338 339 337 339 339 339 338 337 337 335 336 333 332 331 330 327 328 327 323 317 318 311 300 301 303 306 310 317 320 321 323 322 323 320 314 318 323 324
324 330 333 335 337 337 338 338 338 339 339 337 336 336 334 335 335 334 333 331 329 328 326 324 324 317 310 300 300 303 305 307 310 312 316 316 316 320 319 316 311 313 317
309 314 323 330 333 334 338 337 339 338 338 337 335 335 335 337 336 333 332 331 331 329 328 327 326 324 314 303 299 300 301 303 305 305 306 305 308 313 316 317 313 314 317
307 306 307 310 319 332 335 337 336 336 337 338 338 338 336 335 335 333 331 331 332 329 327 326 325 324 323 312 301 299 300 301 302 302 303 301 301 303 316 316 317 317 319
305 307 308 309 310 317 327 334 334 334 335 338 338 337 335 333 332 332 332 329 330 329 327 326 325 324 323 320 309 300 299 300 301 301 301 301 301 301 312 317 317 318 321
306 307 309 311 312 311 315 333 332 332 332 333 334 333 333 332 332 331 331 331 329 329 328 327 325 323 323 322 317 309 302 300 300 300 301 300 301 301 304 317 318 319 320
306 308 310 313 314 314 311 331 331 331 331 331 331 330 332 331 332 332 332 331 330 329 328 327 325 323 320 317 317 313 308 303 300 300 300 300 300 300 301 309 319 320 320
306 308 310 314 317 314 317 329 331 331 331 329 329 328 330 331 331 331 330 329 329 328 327 326 325 323 322 320 317 315 312 309 307 303 300 299 299 299 300 301 312 320 321
305 307 312 315 318 323 324 328 330 330 329 327 328 328 329 329 328 328 326 325 326 325 324 324 323 321 321 319 317 316 316 317 315 312 307 302 300 299 298 299 301 306 310
303 310 315 316 319 321 323 324 325 325 325 324 324 324 325 325 325 325 324 323 322 322 322 322 320 319 317 317 314 314 315 314 313 313 314 314 310 303 299 298 298 300 302
302 309 314 315 316 320 320 320 319 319 320 320 319 319 319 320 320 320 319 318 318 318 317 316 315 316 315 314 314 314 313 312 310 306 307 310 308 305 303 300 297 297 299
302 310 314 316 315 318 319 318 315 310 307 308 310 312 313 314 314 313 312 311 311 310 310 309 309 308 305 305 308 310 310 309 307 304 302 299 301 299 297 298 298 298 297
300 303 309 311 310 309 307 305 303 301 300 300 303 303 305 306 307 306 306 304 303 303 303 304 306 305 303 303 307 308 308 304 302 302 302 300 299 299 299 298 297 297 297
298 299 301 303 306 305 304 302 298 295 294 294 296 298 300 301 301 300 299 298 298 298 298 299 301 303 302 300 302 306 309 307 303 303 300 298 300 299 300 299 299 300 300
296 297 301 303 304 303 301 299 296 294 293 292 290 291 291 292 293 293 293 292 292 292 292 293 295 298 299 299 299 301 306 306 301 301 299 301 299 298 297 298 297 298 298
293 295 298 299 300 300 299 297 296 295 291 289 288 287 287 287 287 287 287 287 287 287 287 287 288 289 291 291 295 295 297 297 300 301 299 297 295 291 292 295 293 295 296
292 292 293 297 299 298 297 294 292 290 289 288 287 286 286 286 286 286 286 286 285 285 285 285 285 286 286 287 288 289 290 291 292 291 293 291 290 290 292 289 292 292 295
290 291 291 291 291 292 293 291 290 289 288 288 287 286 285 285 285 285 285 284 284 284 284 284 284 284 284 285 285 286 287 287 287 288 289 288 289 289 287 289 290 291 291

GFSSE_925_thetae_033.txt.gz
Theta_e
338 344 340 341 340 338 337 334 334 333 332 332 333 335 335 336 338 341 340 338 338 337 335 334 332 329 332 335 337 336 335 335 335 334 331 330 331 332 334 340 341 341 338
338 344 341 341 340 338 337 335 334 334 334 336 335 339 339 338 337 340 338 337 337 336 333 328 325 322 323 326 331 332 333 333 332 331 337 337 332 331 328 327 334 339 340
338 343 343 342 341 338 337 336 335 334 333 332 331 332 334 334 332 340 337 337 337 337 333 326 323 321 320 320 321 325 328 332 333 333 335 336 337 336 333 330 328 328 335
336 342 344 342 342 339 338 336 336 335 334 331 329 328 328 329 337 338 335 337 337 336 335 330 326 322 319 316 315 319 322 327 330 335 333 333 337 333 335 332 330 331 333
336 341 344 342 341 340 341 337 336 336 335 334 332 331 330 330 334 334 334 337 333 331 330 328 329 325 320 312 308 309 315 322 329 332 332 333 337 334 333 333 333 330 328
337 340 344 342 341 340 339 337 335 337 337 335 334 333 335 333 330 331 334 334 331 329 324 320 326 324 316 307 305 306 310 318 329 330 330 332 334 335 334 333 332 329 327
337 338 343 340 340 341 340 337 337 337 338 337 335 333 336 333 330 331 333 334 331 329 325 320 318 318 311 303 304 306 309 317 325 327 328 330 330 332 332 330 330 329 327
337 339 341 339 339 340 339 340 339 339 338 336 336 333 336 334 330 330 331 330 330 327 325 321 314 314 308 301 303 306 307 316 319 323 325 328 327 327 327 327 328 328 327
334 338 339 339 338 338 339 339 339 339 339 337 337 336 334 335 333 331 330 330 328 327 327 325 325 313 307 300 301 304 307 312 317 319 319 322 321 322 321 320 318 321 325
318 322 326 335 338 340 341 338 337 338 339 338 337 336 334 335 334 333 332 331 330 329 328 327 326 325 312 301 300 301 304 308 310 311 314 311 313 318 319 319 317 319 320
312 312 315 319 325 334 337 338 338 338 339 339 337 335 335 337 336 335 333 331 329 329 327 326 325 324 323 312 300 299 303 305 306 307 307 303 306 314 317 317 318 318 319
311 311 311 312 316 324 332 336 336 339 339 339 339 338 337 337 336 335 332 331 330 331 328 326 325 324 321 314 306 303 302 301 304 304 304 301 301 308 316 319 318 318 320
310 311 312 312 313 315 325 334 336 334 335 337 338 338 337 336 334 333 331 330 329 329 327 326 325 323 322 319 314 307 303 303 304 304 304 301 301 302 315 318 319 320 321
310 312 313 314 315 317 316 332 333 333 333 337 336 336 335 334 332 332 331 331 330 329 328 327 326 323 321 320 320 316 310 304 302 302 303 301 300 300 303 317 320 320 320
311 312 314 315 317 319 317 328 331 332 334 333 332 330 332 333 332 332 332 331 329 328 327 327 326 324 322 321 319 318 316 315 312 307 302 301 300 299 300 309 318 322 322
310 313 313 315 319 316 321 330 332 332 330 330 328 328 329 330 331 330 330 328 328 327 326 326 325 324 322 320 317 318 316 315 316 313 309 306 305 301 299 299 306 314 318
310 311 313 314 318 323 326 328 330 330 328 327 327 327 328 328 327 327 326 325 325 324 325 324 323 322 320 319 317 317 315 311 311 308 307 306 304 304 303 299 299 300 302
310 314 315 314 318 320 322 324 323 323 324 324 323 323 322 323 324 323 322 321 321 322 320 320 319 319 317 317 317 315 316 314 311 309 307 306 305 304 303 302 298 297 298
309 311 313 313 318 320 321 321 321 319 317 315 316 316 317 318 319 319 318 316 315 315 315 314 314 314 311 310 310 312 313 312 311 309 307 303 301 300 300 299 299 299 298
308 310 311 312 315 317 319 318 317 317 316 313 309 305 308 309 309 310 309 309 308 308 307 310 310 308 306 305 307 310 311 310 307 305 303 302 300 301 300 300 300 299 298
308 307 308 309 310 310 308 305 304 302 301 299 299 300 302 303 303 303 302 303 303 302 303 304 307 306 303 303 307 307 309 305 304 305 302 301 301 301 301 301 300 300 300
307 305 304 306 307 306 306 304 302 299 297 296 294 295 296 298 297 297 297 297 297 296 296 297 300 303 302 300 302 306 310 307 304 303 302 301 299 293 296 294 295 295 297
304 305 304 304 304 304 302 300 298 296 295 294 292 291 291 292 293 293 292 291 291 290 289 290 291 293 295 296 295 300 304 304 300 302 301 295 294 290 292 294 288 291 292
301 301 301 301 302 301 300 300 299 298 294 292 290 289 289 289 289 288 288 288 288 288 288 288 289 289 290 290 291 292 292 296 296 295 293 293 290 290 289 292 287 293 291
298 299 299 298 297 298 299 298 296 293 291 290 289 288 287 287 287 287 287 287 287 286 286 286 286 287 287 288 288 289 289 289 290 289 290 289 289 288 289 287 289 289 290
295 295 296 295 295 294 294 294 294 292 291 290 289 288 288 287 286 286 286 286 285 285 285 284 284 284 285 285 286 286 287 287 287 287 288 288 288 287 287 288 289 288 289

GFSSE_925_thetae_036.txt.gz
Theta_e
344 338 338 339 338 336 334 333 332 331 331 332 335 335 336 338 341 339 337 337 337 335 334 332 328 326 331 334 334 334 333 332 331 336 335 329 330 331 330 339 340 339 338
345 339 339 340 338 337 335 334 335 335 337 334 336 338 338 337 340 338 336 336 336 334 332 328 323 321 322 325 328 330 331 331 332 336 337 335 330 332 329 328 334 340 340
344 341 341 341 338 337 335 335 334 333 332 331 333 334 334 332 339 337 336 336 335 335 334 328 323 320 318 319 321 324 327 329 334 334 336 337 333 332 333 330 333 333 335
342 343 343 341 339 337 336 336 335 334 333 331 329 329 329 336 338 334 336 336 335 333 330 330 326 321 317 312 312 317 323 328 332 332 333 336 334 335 335 334 329 329 328
339 344 344 341 341 338 338 336 336 335 334 331 330 329 329 334 333 332 336 332 331 329 322 324 327 322 314 309 307 309 317 327 330 331 330 335 335 335 335 333 328 326 324
339 343 344 341 340 340 340 337 335 336 336 334 332 332 332 330 330 333 335 332 329 328 319 315 319 316 309 305 305 307 315 326 328 329 330 331 332 334 334 333 331 329 326
337 341 342 341 340 340 338 335 334 335 336 335 333 335 334 330 330 333 334 332 330 325 322 315 312 311 304 302 304 305 311 322 324 327 328 328 327 328 329 330 329 329 328
339 340 341 340 340 340 340 339 338 338 337 335 334 333 335 332 331 330 330 329 327 327 326 326 318 308 302 301 303 306 316 319 320 322 324 324 323 323 323 322 324 326 327
338 339 340 339 338 339 340 339 340 339 338 337 336 335 333 334 332 330 330 329 329 328 327 326 325 323 304 300 301 304 309 313 315 316 319 316 317 320 320 320 319 321 323
322 327 332 337 337 337 338 338 338 339 339 338 337 336 334 335 333 332 331 331 329 328 327 325 325 323 319 303 299 301 306 307 307 308 309 306 309 319 319 319 319 319 321
312 312 315 321 327 334 336 337 337 337 338 338 338 336 334 334 335 333 332 331 329 328 327 325 324 323 321 317 305 302 302 303 305 304 303 301 303 315 318 320 319 319 321
311 311 311 313 316 323 331 334 335 336 336 337 336 337 336 335 336 335 332 330 330 329 327 325 324 323 321 321 317 307 300 302 303 303 303 301 301 313 318 319 320 320 321
311 312 313 313 313 316 324 332 334 335 336 336 336 336 336 335 335 334 331 330 329 329 327 326 324 323 322 321 320 319 311 303 302 302 302 301 301 301 309 319 321 321 321
312 313 314 315 317 316 321 331 332 333 333 336 335 335 335 333 332 332 332 331 330 329 328 327 325 324 321 319 319 318 317 314 310 304 302 301 300 300 301 310 320 322 322
312 314 314 315 317 319 317 330 331 332 334 333 332 331 332 332 331 332 331 330 329 328 328 326 325 324 323 321 318 315 315 314 312 311 307 305 303 300 299 304 310 316 319
312 313 314 315 320 317 320 330 331 330 330 330 328 327 328 329 329 327 327 328 328 327 326 325 325 324 322 321 319 317 314 312 310 308 307 305 304 304 303 302 305 308 310
312 314 314 316 320 322 325 329 328 328 327 326 326 325 326 326 326 326 327 326 325 324 323 323 323 321 320 320 319 316 316 314 311 310 308 307 305 303 302 302 300 298 302
312 314 314 316 317 321 324 325 326 326 325 325 324 323 323 323 323 323 323 321 320 321 320 319 319 317 315 314 314 314 314 313 311 308 307 304 302 300 300 300 300 300 302
312 314 315 316 317 319 320 320 319 320 321 320 320 321 319 319 319 318 316 313 312 313 312 312 310 308 308 308 308 309 311 309 308 305 302 301 301 301 301 301 301 301 302
311 314 313 314 315 316 317 316 315 313 311 312 311 310 309 309 309 309 309 310 309 308 309 308 307 306 303 304 308 308 309 306 304 303 301 301 301 296 296 296 291 292 296
310 311 312 313 312 313 310 309 309 305 305 306 306 305 306 306 306 306 304 303 304 303 303 306 304 302 296 300 303 307 304 304 303 302 301 300 299 291 292 294 289 290 291
309 308 309 310 309 308 307 303 302 300 299 298 298 299 300 301 300 300 299 296 294 294 293 296 298 296 294 294 299 303 303 304 299 301 296 296 291 289 289 293 288 291 289
307 307 307 307 306 306 305 303 300 297 294 294 293 293 292 293 294 293 292 291 290 290 289 289 290 290 291 290 292 296 296 296 296 298 294 291 289 288 288 291 287 291 288
305 305 305 304 304 304 303 301 298 296 293 291 290 290 290 290 290 289 289 289 289 288 288 288 287 288 288 288 288 289 290 291 290 288 290 290 286 287 288 287 289 289 288
302 302 302 302 301 301 301 300 298 294 291 290 289 289 288 288 288 288 288 288 288 287 287 287 286 286 286 287 286 287 286 288 287 287 285 286 285 285 286 287 287 287 288
299 299 299 299 298 299 299 298 296 293 290 289 288 288 287 287 287 287 287 287 287 286 286 285 285 285 285 285 285 285 285 286 285 285 284 285 285 285 286 286 287 286 286

GFSSE_925_thetae_042.txt.gz
Theta_e
338 336 337 337 338 338 334 331 331 333 333 335 339 340 339 337 335 335 335 335 334 332 331 328 324 325 326 328 330 332 334 334 335 334 333 334 335 336 336 338 338 338 338
337 337 336 335 334 332 332 333 333 333 338 338 337 339 338 337 337 336 334 330 331 332 330 324 318 318 320 324 327 332 331 335 335 335 332 333 333 335 334 332 334 337 338
336 337 336 335 334 335 336 338 338 337 335 333 330 336 337 336 336 335 331 326 328 331 330 326 319 314 313 319 325 331 330 331 334 334 333 334 334 333 333 332 331 333 334
337 338 337 335 334 334 334 333 331 329 328 328 333 337 337 335 336 332 327 323 323 328 327 323 316 310 308 312 323 328 330 331 334 333 333 332 333 333 332 330 329 328 328
338 339 338 336 335 334 334 333 332 331 329 329 334 336 335 333 334 330 327 322 320 318 320 319 315 308 306 312 324 325 328 330 330 330 330 331 330 330 329 331 328 324 322
339 340 339 337 335 335 334 334 333 332 330 329 331 334 334 333 333 330 326 326 326 324 315 306 302 303 305 314 320 323 325 326 327 326 326 325 325 326 326 327 328 327 326
340 340 340 339 337 337 335 333 334 334 332 331 333 331 331 333 333 329 327 327 325 324 323 315 301 301 305 313 317 319 320 322 322 322 320 320 323 323 322 322 324 325 325
339 339 340 339 338 338 336 333 334 334 333 332 333 332 329 331 331 327 329 327 326 325 323 322 315 301 302 308 313 314 316 317 317 313 314 317 321 322 321 321 322 323 324
341 341 341 339 339 338 336 336 337 336 335 334 333 333 331 330 329 329 329 327 326 324 323 322 321 318 303 301 304 305 306 307 306 303 304 311 320 322 322 321 322 323 323
339 338 339 338 339 339 339 338 338 338 337 335 335 333 333 331 330 330 329 327 326 324 323 322 322 321 320 315 303 301 302 303 302 301 302 312 319 321 322 322 322 322 322
334 335 335 336 335 335 336 337 337 338 337 337 336 335 333 332 331 330 329 328 326 324 323 322 322 321 320 318 312 305 303 302 301 301 300 308 315 318 321 321 322 322 322
315 323 331 334 334 334 334 334 334 334 337 337 336 335 334 333 332 330 330 328 327 324 323 322 321 321 320 319 316 311 307 304 303 302 301 302 312 315 317 321 322 323 324
311 312 312 317 324 333 333 333 333 333 334 336 337 336 335 334 333 331 330 329 328 325 323 322 320 319 318 316 314 312 310 309 306 305 305 304 310 313 314 315 316 317 319
312 312 312 312 313 319 330 333 333 332 333 335 336 335 335 334 334 331 330 329 327 326 326 325 323 320 318 316 314 312 311 309 308 307 306 307 311 312 313 312 311 311 312
312 312 313 313 315 316 326 331 330 331 332 335 335 335 333 335 332 330 329 327 328 325 324 324 323 322 320 317 315 315 312 309 307 306 305 305 306 309 311 311 311 312 311
311 312 313 314 315 316 323 329 329 330 331 333 333 332 333 333 331 330 328 326 324 325 323 325 323 322 320 317 316 314 310 308 307 306 304 303 303 303 303 305 307 309 311
311 312 314 316 319 318 325 327 329 329 328 329 330 330 331 330 328 327 325 324 324 323 323 323 321 320 319 317 314 312 310 307 305 303 302 301 299 295 292 297 300 304 306
311 313 314 315 319 322 325 325 326 327 327 327 325 326 326 325 325 323 322 321 321 321 321 319 317 317 313 309 309 307 305 304 302 300 296 293 291 292 291 290 290 297 301
312 313 314 316 319 322 323 323 322 322 322 322 321 321 320 320 320 321 319 316 317 316 315 314 312 309 308 308 306 303 302 302 300 298 293 291 289 291 289 290 290 289 297
313 313 314 316 317 320 320 320 319 319 320 320 320 319 318 318 317 317 315 314 313 312 309 303 302 306 307 307 303 301 301 299 298 294 291 289 288 288 288 288 288 288 289
312 313 314 315 316 317 316 314 314 314 312 314 315 317 314 313 313 313 312 311 310 309 301 295 297 305 304 303 301 298 298 295 294 291 290 288 287 287 287 287 287 287 287
311 312 313 314 315 316 316 314 313 309 307 308 308 309 309 309 308 308 308 308 306 301 295 294 294 295 298 302 303 301 297 295 291 290 289 287 286 286 287 286 285 286 286
310 311 312 313 314 312 313 311 308 305 303 302 304 305 305 306 304 301 299 299 295 293 293 293 293 293 290 290 295 297 291 294 292 295 289 287 286 286 286 286 284 285 286
310 311 312 312 311 311 311 311 311 307 299 298 300 301 301 299 295 293 292 292 292 292 291 291 291 291 291 289 289 289 289 289 285 285 287 286 285 285 286 285 284 285 286
309 310 311 310 309 308 309 310 308 304 302 298 296 294 293 291 291 291 291 291 291 290 290 289 289 289 289 288 288 286 287 286 285 285 282 284 284 284 285 284 284 284 285
308 309 309 308 306 305 305 306 306 305 299 293 291 290 289 289 289 289 289 289 289 289 288 288 288 288 287 287 286 286 285 285 284 283 282 282 282 283 284 284 283 283 284

GFSSE_925_thetae_045.txt.gz
Theta_e
337 336 337 337 338 338 332 331 335 336 337 340 339 338 336 336 335 332 330 334 333 331 329 329 330 331 333 334 334 332 333 334 332 333 334 334 335 334 334 336 337 338 338
336 336 336 337 335 332 332 334 334 338 336 339 338 337 337 337 333 325 326 331 332 331 329 326 323 320 325 331 330 334 334 335 333 333 333 332 332 333 331 331 333 335 336
336 336 335 333 332 333 337 336 338 337 331 335 337 337 336 336 334 329 326 329 331 329 327 323 319 315 321 328 330 331 333 333 333 333 332 331 332 331 330 329 329 330 332
336 337 335 333 333 334 334 334 332 330 330 336 336 335 334 334 332 325 323 322 324 322 321 318 314 310 320 326 330 332 332 331 331 331 330 329 329 329 329 330 328 327 327
336 337 336 334 334 333 333 331 330 329 331 335 335 334 334 334 328 323 325 323 318 313 312 308 306 308 321 324 327 328 328 327 326 325 325 325 325 327 326 326 326 326 326
338 338 336 335 334 334 333 332 331 329 328 331 333 331 332 331 327 327 327 325 323 319 304 302 304 308 319 322 324 324 325 325 324 320 319 319 323 323 323 323 324 324 325
339 339 337 335 335 334 334 333 333 331 329 329 331 330 332 330 327 328 326 324 323 322 314 302 303 309 313 317 318 318 318 317 316 315 317 321 323 323 322 323 323 324 324
338 339 339 337 336 335 334 333 334 332 331 332 331 328 331 331 327 328 326 325 324 322 321 315 302 303 307 309 309 310 310 308 306 308 315 320 323 323 323 323 323 324 323
337 337 339 338 338 338 334 332 334 334 332 332 332 330 331 330 328 329 327 325 323 322 321 321 317 306 302 302 303 304 303 302 302 308 316 320 322 322 322 323 323 322 322
340 340 340 339 338 337 336 334 336 335 334 333 332 332 331 329 329 329 326 325 323 322 322 321 320 318 310 304 302 302 302 301 301 305 313 317 320 322 322 322 322 322 322
339 339 339 337 337 338 337 337 337 337 336 335 334 333 331 330 329 329 327 326 323 322 320 319 319 318 316 311 306 305 304 302 301 301 307 314 317 319 321 323 324 324 325
332 334 335 336 335 335 335 335 335 335 336 336 335 334 333 331 330 330 329 327 324 322 321 318 318 317 315 312 310 309 308 307 307 305 309 314 316 316 315 315 316 318 319
326 328 331 333 334 333 332 333 334 334 335 336 336 334 334 332 331 330 329 327 326 324 321 320 318 317 315 314 313 311 310 308 307 308 312 314 316 317 316 315 314 313 314
312 313 316 323 329 331 333 330 332 333 333 335 335 335 335 333 331 331 329 328 327 326 324 321 320 318 316 314 314 313 310 309 307 307 307 311 312 314 315 315 316 316 315
311 311 312 312 312 317 327 330 330 330 330 330 332 334 335 334 333 330 329 328 326 325 323 322 321 319 316 314 313 311 309 307 307 306 305 304 304 307 309 310 311 312 313
311 311 312 312 313 314 320 330 329 328 330 332 333 334 333 333 333 330 329 327 326 324 322 321 320 318 316 316 312 309 307 305 303 302 300 296 295 299 301 304 306 308 311
310 311 312 313 314 316 318 328 327 328 330 331 333 333 332 334 331 330 327 326 324 323 322 320 319 318 316 314 310 306 304 302 299 295 293 292 291 291 293 298 301 303 306
310 311 312 314 316 317 321 326 325 327 329 330 330 331 331 331 330 328 325 323 322 322 320 318 317 315 311 310 305 303 301 298 295 292 291 291 289 290 290 289 292 297 298
309 311 313 315 315 320 323 325 324 325 327 326 326 328 328 327 326 325 322 320 319 318 318 316 312 311 308 304 302 300 298 296 293 290 289 289 288 288 288 288 288 288 294
310 312 313 315 317 319 322 323 322 323 323 323 323 323 323 324 322 321 319 317 317 316 312 309 308 307 305 302 300 297 294 291 290 289 288 288 287 288 287 287 287 287 289
310 312 313 315 317 318 319 319 317 319 318 320 320 320 319 318 319 319 318 315 312 310 302 305 307 306 301 300 298 292 290 290 290 288 287 287 287 287 286 286 286 286 286
309 312 313 314 315 316 317 317 316 316 314 316 315 317 316 315 314 315 314 312 309 300 297 304 306 302 300 300 300 297 294 291 290 290 287 286 286 286 286 285 285 286 285
308 311 312 313 314 315 313 314 313 311 307 308 308 311 310 310 310 310 310 308 301 295 294 296 303 303 298 297 301 300 294 297 292 292 287 285 285 285 285 285 284 285 284
307 310 312 312 313 311 312 312 313 308 303 304 307 308 306 305 305 305 306 301 294 293 293 293 292 293 292 290 289 289 289 289 285 285 286 285 285 285 285 284 284 284 284
306 310 311 311 311 311 311 311 311 308 308 306 304 304 301 298 297 298 295 292 293 293 292 292 291 291 291 290 289 287 287 286 285 285 282 284 284 284 284 284 283 283 283
305 309 310 310 309 310 309 309 308 309 305 300 299 299 294 292 291 291 291 292 292 292 291 291 290 290 290 289 288 287 287 285 284 284 282 282 282 283 284 283 283 282 283

GFSSE_925_thetae_048.txt.gz
Theta_e
337 338 337 337 337 334 330 334 336 338 339 337 336 338 333 329 328 332 333 333 331 330 330 330 332 333 333 333 335 334 333 333 333 332 332 331 331 333 333 333 335 337 338
336 337 336 336 336 331 333 334 335 338 338 338 336 337 333 326 318 327 332 332 330 329 327 325 329 330 330 333 333 333 332 332 331 330 330 329 329 329 330 329 330 333 334
335 336 336 336 331 332 333 338 336 336 337 338 337 336 334 328 320 314 317 320 323 324 323 323 327 327 332 333 332 331 331 331 330 329 328 327 327 328 327 327 327 328 330
336 336 335 332 333 335 337 337 333 329 336 336 336 335 330 323 321 318 312 309 315 319 321 323 326 328 332 330 329 328 328 327 326 327 326 324 325 326 326 326 326 326 325
337 336 334 333 334 334 333 330 329 333 335 334 336 335 333 325 326 325 324 320 316 315 315 322 324 325 329 327 326 326 325 324 321 319 319 322 324 325 325 325 325 325 324
337 336 334 333 333 333 332 330 329 330 335 335 336 336 334 327 328 325 324 322 316 312 313 318 319 321 323 323 322 321 320 318 316 318 321 323 324 324 324 324 324 324 323
338 337 335 334 334 333 332 331 330 329 331 335 335 337 334 327 327 325 324 322 319 312 314 317 317 316 317 316 315 314 312 313 315 320 322 323 323 324 324 324 324 324 323
337 338 336 335 334 334 333 333 332 330 332 333 332 334 331 327 328 326 324 322 321 319 311 309 311 309 308 307 305 303 304 308 313 319 321 322 323 324 323 323 322 322 321
338 338 337 335 335 335 333 333 333 332 332 334 332 332 331 328 328 326 324 323 322 321 318 314 307 303 302 302 302 301 302 306 311 317 320 322 323 324 323 324 323 323 323
339 339 338 337 337 337 334 333 333 334 332 332 332 331 331 328 328 326 324 322 321 320 318 316 312 310 306 303 302 301 301 302 308 314 318 319 320 322 323 323 323 325 325
339 339 339 337 338 337 336 334 335 335 334 333 332 331 330 329 329 327 325 323 322 321 319 317 314 311 309 307 307 307 306 304 308 315 316 316 317 316 316 317 318 320 320
338 339 340 336 335 335 335 335 334 335 335 335 334 332 331 330 329 328 327 324 322 321 319 317 315 313 312 311 310 310 309 310 312 314 317 318 319 319 319 318 316 315 315
336 336 336 336 333 334 333 333 333 334 335 335 335 333 332 331 330 330 328 326 324 322 320 318 315 314 313 313 311 309 309 310 311 313 314 314 316 317 317 317 317 317 317
330 331 332 332 333 333 333 332 332 332 332 334 333 335 333 331 330 330 329 327 325 324 321 317 316 314 312 311 310 309 308 308 309 306 307 307 311 313 313 314 315 315 316
321 323 325 327 330 331 332 331 329 330 331 331 331 331 333 333 331 330 329 327 326 324 323 319 317 315 313 311 310 309 308 306 304 300 301 301 303 307 309 310 312 312 312
311 311 312 312 313 317 324 330 328 328 329 329 329 330 332 333 332 331 328 327 325 324 322 320 317 316 312 311 308 306 304 301 298 295 294 294 295 301 304 305 306 307 308
310 311 311 311 312 312 314 321 329 327 327 328 328 328 332 331 333 331 328 327 325 323 321 319 315 315 313 307 305 301 299 295 293 292 291 291 291 291 295 299 300 302 305
309 310 310 311 312 313 316 318 327 326 327 327 328 332 333 330 331 330 327 326 323 322 321 318 315 312 308 304 299 295 293 292 291 290 289 289 289 289 289 289 297 300 301
309 309 310 311 313 315 318 322 325 325 327 328 329 332 331 332 331 329 327 324 322 320 318 316 312 311 304 298 295 293 291 290 289 289 288 288 288 288 288 287 289 291 293
307 309 310 312 314 314 315 321 323 323 324 326 328 330 330 330 327 325 323 321 319 317 316 312 310 305 301 297 293 291 289 288 288 287 287 287 287 287 287 287 286 286 285
306 308 310 312 313 314 315 318 319 321 322 323 323 325 326 326 325 323 321 319 316 315 313 309 306 304 298 296 293 288 288 287 287 286 286 286 286 286 286 285 285 285 284
306 308 310 312 313 313 315 317 318 319 318 320 320 320 320 321 321 320 318 316 314 310 306 307 306 300 296 298 297 294 290 289 289 286 286 285 285 285 285 284 285 284 284
305 307 309 311 313 313 315 316 315 316 313 313 314 317 317 318 318 318 317 314 308 304 305 307 306 304 299 299 299 300 294 296 291 291 285 285 284 285 284 284 284 284 283
304 306 308 311 312 313 313 315 316 315 308 310 314 315 315 314 314 313 312 309 301 299 304 305 304 303 302 298 293 291 291 292 286 285 286 285 284 284 284 284 283 283 283
303 305 307 310 311 312 313 313 314 313 313 313 310 311 312 310 308 309 308 303 294 294 297 300 299 295 296 293 290 288 287 287 287 285 283 284 284 283 284 284 283 283 283
303 304 306 309 310 311 311 311 312 312 310 307 304 305 307 306 303 304 304 297 293 293 292 292 292 291 292 291 290 289 288 287 285 284 282 282 282 283 283 283 283 282 282